KE0YON Weather Reports


time (UTC)temp
F
wind
direction
speed
knots
gust
knots
rain 1hr
in
rain 24hr
in
rain mn
in
humidity
%
barometer
mb
20260505230015 42 104 9.6 12.2 0.00 0.00 0.00 71 1011.4
20260505224519 42 96 9.6 13.0 0.00 0.00 0.00 71 1011.7
20260505223028 43 139 8.7 13.0 0.00 0.00 0.00 70 1011.8
20260505221520 43 118 7.0 13.0 0.00 0.00 0.00 71 1011.6
20260505220033 43 101 10.4 14.8 0.00 0.00 0.00 71 1011.7
20260505214516 43 122 5.2 10.4 0.00 0.00 0.00 71 1012.2
20260505213030 43 102 7.8 11.3 0.00 0.00 0.00 70 1011.9
20260505204530 44 109 7.0 12.2 0.00 0.00 0.00 70 1012.3
20260505193041 44 105 10.4 16.5 0.00 0.00 0.00 70 1012.8
20260505190029 43 125 10.4 14.8 0.00 0.00 0.00 72 1013.1
20260505184525 43 124 11.3 18.2 0.00 0.00 0.00 72 1013.3
20260505183039 43 105 9.6 14.8 0.00 0.00 0.00 73 1013.3
20260505181526 43 99 11.3 14.8 0.00 0.00 0.00 74 1013.4
20260505180032 43 111 9.6 16.5 0.00 0.00 0.00 75 1013.8
20260505174531 43 89 9.6 16.5 0.00 0.00 0.00 75 1013.8
20260505173034 43 98 9.6 13.9 0.00 0.00 0.00 77 1013.8
20260505171530 43 97 11.3 14.8 0.00 0.00 0.00 76 1013.9
20260505170025 43 106 9.6 13.9 0.00 0.00 0.00 76 1013.9
20260505164531 43 94 9.6 13.0 0.00 0.00 0.00 75 1014.1
20260505163023 43 117 6.1 11.3 0.00 0.00 0.00 76 1014.0
20260505161525 43 86 6.1 12.2 0.00 0.00 0.00 76 1014.0
20260505153028 43 105 9.6 14.8 0.00 0.00 0.00 76 1014.1
20260505123019 46 97 4.3 8.7 0.00 0.00 0.00 70 1012.6
20260505121524 46 105 4.3 9.6 0.00 0.00 0.00 69 1012.3
20260505120033 46 113 4.3 7.8 0.00 0.00 0.00 68 1012.0
20260505114534 47 102 2.6 4.3 0.00 0.00 0.00 68 1011.6
20260505113010 46 125 2.6 5.2 0.00 0.00 0.00 67 1011.8
20260505111518 46 98 1.7 2.6 0.00 0.00 0.00 66 1011.5
20260505101515 47 83 0.9 4.3 0.00 0.00 0.00 67 1011.9
20260505100016 47 27 4.3 5.2 0.00 0.00 0.00 66 1011.6
20260505094524 48 28 2.6 5.2 0.00 0.00 0.00 67 1011.7
20260505093027 48 19 5.2 7.0 0.00 0.00 0.00 67 1011.8
20260505091530 48 22 4.3 6.1 0.00 0.00 0.00 66 1011.6
20260505090026 49 32 3.5 6.1 0.00 0.00 0.00 66 1011.7
20260505084520 50 36 5.2 7.8 0.00 0.00 0.00 64 1011.7
20260505083025 50 34 6.1 9.6 0.00 0.00 0.00 63 1011.7
20260505081536 50 19 7.0 9.6 0.00 0.00 0.00 64 1011.7
20260505080045 51 9 7.0 10.4 0.00 0.00 0.00 64 1011.7
20260505074514 51 4 7.0 10.4 0.00 0.00 0.00 64 1011.6
20260505073020 51 360 8.7 11.3 0.00 0.00 0.00 64 1011.6
20260505071525 52 27 7.0 12.2 0.00 0.00 0.00 62 1011.3
20260505070024 53 25 11.3 13.9 0.00 0.00 0.00 61 1011.1
20260505064528 53 25 7.8 11.3 0.00 0.00 0.00 59 1011.2
20260505063017 53 342 8.7 13.9 0.00 0.00 0.00 59 1011.4
20260505061524 54 347 11.3 17.4 0.00 0.00 0.00 57 1011.2
20260505060026 54 33 13.0 17.4 0.00 0.00 0.00 57 1011.5
20260505054524 54 356 13.9 17.4 0.00 0.00 0.00 56 1011.5
20260505053028 55 23 13.9 16.5 0.00 0.00 0.00 55 1011.2
20260505051523 55 22 9.6 14.8 0.00 0.00 0.00 54 1011.2
20260505041545 56 9 11.3 18.2 0.00 0.00 0.00 53 1011.1
20260505040027 57 31 14.8 23.5 0.00 0.00 0.00 51 1010.9
20260505033027 57 20 19.1 26.9 0.00 0.00 0.00 49 1009.8
20260505031524 58 352 20.9 27.8 0.00 0.00 0.00 48 1009.8
20260505030035 58 350 21.7 30.4 0.00 0.00 0.00 47 1009.2
20260505021528 60 355 23.5 33.9 0.00 0.00 0.00 43 1008.6
20260505020029 61 338 21.7 33.9 0.00 0.00 0.00 41 1008.3
20260505014526 63 6 23.5 33.0 0.00 0.00 0.00 37 1008.0
20260505011530 64 35 15.6 20.0 0.00 0.00 0.00 35 1007.0
20260505010026 65 9 13.9 20.9 0.00 0.00 0.00 33 1006.7
20260505004530 66 9 15.6 23.5 0.00 0.00 0.00 30 1006.6
20260505001524 68 61 13.9 21.7 0.00 0.00 0.00 28 1006.3
20260505000011 68 34 15.6 27.8 0.00 0.00 0.00 27 1006.2
20260504234516 69 35 14.8 24.3 0.00 0.00 0.00 26 1006.1
20260504233021 69 4 21.7 28.7 0.00 0.00 0.00 25 1006.2
20260504231525 70 348 19.1 24.3 0.00 0.00 0.00 25 1006.2